{"data":{"norad_id":65920,"epoch":"2026-09-20T12:38:04.746912Z","epoch_age_seconds":100792,"freshness":"FRESH","line1":"1 65920U 25225L   26263.52644383  .00015978  00000+0  48288-3 0  9994","line2":"2 65920  53.1611 337.4833 0001387  56.5738 303.5397 15.34410058 54285","mean_motion":15.34410058,"eccentricity":0.0001387,"inclination_deg":53.1611,"raan_deg":337.4833,"arg_perigee_deg":56.5738,"mean_anomaly_deg":303.5397,"bstar":0.00048288,"rev_number":5428,"period_min":93.847142912824,"perigee_km":461.7245254798,"apogee_km":463.62216626975,"semimajor_km":6840.8103458748,"source":"CELESTRAK","updated_at":"2026-09-21T09:00:35.764258Z"}}